Change the Weather History Date:

Sunday, January 15, 2012

  Actual Average Record
Temperature  
Mean Temperature 31 °F -  
Max Temperature 43 °F 21 °F 43 °F (2012)
Min Temperature 19 °F 6 °F -27 °F (2009)
Degree Days  
Heating Degree Days 34    
Moisture  
Dew Point 21 °F    
Average Humidity 79    
Maximum Humidity 93    
Minimum Humidity 45    
Precipitation  
Precipitation 0.00 in - - ()
Sea Level Pressure  
Sea Level Pressure 29.94 in    
Wind  
Wind Speed 7 mph (SE)    
Max Wind Speed 20 mph    
Max Gust Speed 26 mph    
Visibility 7 miles    
Events      
Averages and records for this station are not official NWS values.
T = Trace of Precipitation, MM = Missing Value Source: NWS Daily Summary

Daily Weather History Graph

Daily Weather History Graph

Search for Another Location

Airport or City:

Trip Planner

Search our weather history database for the weather conditions in past years. The results will help you decide how hot, cold, wet, or windy it might be!

Date:

Astronomy

Jan. 15, 2012 Rise Set
Actual Time 7:48 AM CST 4:58 PM CST
Civil Twilight 7:15 AM CST 5:31 PM CST
Nautical Twilight 6:39 AM CST 6:07 PM CST
Astronomical Twilight 6:04 AM CST 6:42 PM CST
Moon No Moon Rise 10:45 AM CST (1/15)
Length of Visible Light 10h 15m
Length of Day
9h 10m
Waning Gibbous, 57% of the Moon is Illuminated
Jan 15
Waning Gibbous
Jan 16
Last Quarter
Jan 23
New
Jan 30
First Quarter
Feb 7
Full

Hourly Weather History & Observations

Time (CST) Temp. Windchill Dew Point Humidity Pressure Visibility Wind Dir Wind Speed Gust Speed Precip Events Conditions
12:31 AM 19.4 °F 14.3 °F 17.6 °F 93% 30.09 in 7.0 mi ESE 3.5 mph - N/A   Mostly Cloudy
12:53 AM 21.9 °F 17.2 °F 19.0 °F 89% 30.13 in 7.0 mi East 3.5 mph - N/A   Overcast
1:36 AM 21.2 °F 13.6 °F 17.6 °F 86% 30.06 in 7.0 mi East 5.8 mph - N/A   Scattered Clouds
1:45 AM 21.2 °F 13.6 °F 17.6 °F 86% 30.06 in 7.0 mi East 5.8 mph - N/A   Mostly Cloudy
1:53 AM 21.0 °F 16.2 °F 18.0 °F 88% 30.11 in 7.0 mi ESE 3.5 mph - N/A   Mostly Cloudy
2:32 AM 21.2 °F 12.6 °F 19.4 °F 93% 30.06 in 5.0 mi SE 6.9 mph - N/A   Mostly Cloudy
2:46 AM 21.2 °F 14.9 °F 19.4 °F 93% 30.06 in 2.5 mi SSE 4.6 mph - N/A   Overcast
2:53 AM 21.9 °F 14.5 °F 19.9 °F 92% 30.10 in 2.0 mi SSE 5.8 mph - N/A   Overcast
3:12 AM 21.2 °F 16.4 °F 19.4 °F 93% 30.06 in 3.0 mi SSE 3.5 mph - N/A   Overcast
3:59 AM 21.2 °F 14.9 °F 17.6 °F 86% 30.05 in 2.5 mi SE 4.6 mph - N/A   Scattered Clouds
4:14 AM 19.4 °F 11.5 °F 17.6 °F 93% 30.04 in 3.0 mi SE 5.8 mph - N/A   Partly Cloudy
4:28 AM 19.4 °F 12.8 °F 17.6 °F 93% 30.03 in 2.5 mi ESE 4.6 mph - N/A   Clear
4:38 AM 21.2 °F 14.9 °F 17.6 °F 86% 30.03 in 3.0 mi ESE 4.6 mph - N/A   Clear
4:53 AM 21.0 °F 13.4 °F 19.0 °F 92% 30.07 in 4.0 mi ESE 5.8 mph - N/A   Clear
6:53 AM 21.9 °F 12.5 °F 19.0 °F 89% 30.05 in 7.0 mi ESE 8.1 mph - N/A   Scattered Clouds
7:53 AM 21.0 °F 11.4 °F 18.0 °F 88% 30.04 in 6.0 mi East 8.1 mph - N/A   Clear
8:53 AM 25.0 °F 14.2 °F 19.9 °F 81% 30.02 in 10.0 mi SE 11.5 mph - N/A   Scattered Clouds
9:53 AM 28.9 °F 17.7 °F 21.9 °F 75% 30.00 in 10.0 mi SE 15.0 mph 21.9 mph N/A   Clear
10:53 AM 33.1 °F 22.6 °F 21.9 °F 64% 29.97 in 10.0 mi SE 16.1 mph - N/A   Clear
11:53 AM 37.0 °F 27.7 °F 23.0 °F 57% 29.91 in 10.0 mi SSE 16.1 mph 23.0 mph N/A   Clear
12:53 PM 37.9 °F 28.9 °F 24.1 °F 57% 29.85 in 10.0 mi SE 16.1 mph 24.2 mph N/A   Clear
2:53 PM 43.0 °F 35.7 °F 23.0 °F 45% 29.77 in 10.0 mi SSE 15.0 mph - N/A   Clear
3:53 PM 41.0 °F 31.9 °F 23.0 °F 49% 29.77 in 10.0 mi South 19.6 mph 26.5 mph N/A   Clear
4:53 PM 39.0 °F 30.3 °F 24.1 °F 55% 29.77 in 10.0 mi SSE 16.1 mph - N/A   Clear
5:53 PM 35.1 °F 25.9 °F 24.1 °F 64% 29.76 in 10.0 mi SE 13.8 mph - N/A   Clear
6:53 PM 34.0 °F 25.5 °F 24.1 °F 67% 29.76 in 10.0 mi SE 11.5 mph - N/A   Clear
7:53 PM 32.0 °F 24.8 °F 24.1 °F 73% 29.75 in 10.0 mi SE 8.1 mph - N/A   Clear
8:53 PM 28.9 °F 21.1 °F 23.0 °F 78% 29.75 in 10.0 mi SE 8.1 mph - N/A   Clear
9:53 PM 30.0 °F 24.1 °F 25.0 °F 82% 29.73 in 10.0 mi SE 5.8 mph - N/A   Clear
10:53 PM 32.0 °F 25.6 °F 26.1 °F 79% 29.72 in 10.0 mi SSE 6.9 mph - N/A   Clear
11:53 PM 32.0 °F 25.6 °F 26.1 °F 79% 29.72 in 10.0 mi SE 6.9 mph - N/A   Clear